Time,TemperatureF,DewpointF,PressureIn,WindDirection,WindDirectionDegrees,WindSpeedMPH,WindSpeedGustMPH,Humidity,HourlyPrecipIn,Conditions,Clouds,dailyrainin,SoftwareType,DateUTC
2013-09-06 00:00:00,65.4,62.7,30.03,NNW,343,0.0,0.0,91,0.00,CLR,,0.00,WeatherDisplay:10.37,2013-09-06 04:00:00,
2013-09-06 00:23:00,65.2,62.5,30.03,NNW,343,0.0,0.0,91,0.00,CLR,,0.00,WeatherDisplay:10.37,2013-09-06 04:23:00,
2013-09-06 01:00:00,65.0,62.6,30.03,NNW,343,0.0,0.0,92,0.00,CLR,,0.00,WeatherDisplay:10.37,2013-09-06 05:00:00,
2013-09-06 02:00:00,65.0,63.6,30.03,NNW,343,0.0,0.0,95,0.00,CLR,,0.00,WeatherDisplay:10.37,2013-09-06 06:00:00,
2013-09-06 03:00:00,65.7,63.3,30.04,NNE,26,0.0,3.0,92,0.00,CLR,,0.00,WeatherDisplay:10.37,2013-09-06 07:00:00,
2013-09-06 04:00:00,65.0,61.7,30.05,West,278,0.0,1.0,89,0.00,CLR,,0.00,WeatherDisplay:10.37,2013-09-06 08:00:00,
2013-09-06 05:00:00,63.7,61.0,30.06,NNE,25,0.0,0.0,91,0.00,CLR,,0.00,WeatherDisplay:10.37,2013-09-06 09:00:00,
2013-09-06 06:00:00,62.5,59.2,30.07,NNE,17,0.0,0.0,89,0.00,CLR,,0.00,WeatherDisplay:10.37,2013-09-06 10:00:00,
2013-09-06 07:00:00,60.7,57.5,30.09,NNE,17,0.0,0.0,89,0.00,CLR,,0.00,WeatherDisplay:10.37,2013-09-06 11:00:00,
2013-09-06 08:00:00,61.1,58.4,30.11,NNE,18,0.0,1.0,91,0.00,CLR,,0.00,WeatherDisplay:10.37,2013-09-06 12:00:00,
2013-09-06 09:00:00,64.7,58.4,30.12,NNW,327,0.0,3.0,80,0.00,CLR,,0.00,WeatherDisplay:10.37,2013-09-06 13:00:00,
2013-09-06 10:00:00,68.7,61.6,30.13,NE,45,0.0,4.0,78,0.00,CLR,,0.00,WeatherDisplay:10.37,2013-09-06 14:00:00,
2013-09-06 11:00:00,77.2,66.2,30.13,SW,216,0.0,3.0,69,0.00,CLR,,0.00,WeatherDisplay:10.37,2013-09-06 15:00:00,
2013-09-06 12:00:00,80.6,65.9,30.12,SE,130,0.0,3.0,61,0.00,CLR,,0.00,WeatherDisplay:10.37,2013-09-06 16:00:00,
2013-09-06 13:00:00,82.5,65.2,30.11,South,178,0.0,4.0,56,0.00,CLR,,0.00,WeatherDisplay:10.37,2013-09-06 17:00:00,
2013-09-06 14:00:00,83.2,63.2,30.10,NNE,31,0.0,5.0,51,0.00,CLR,,0.00,WeatherDisplay:10.37,2013-09-06 18:00:00,
2013-09-06 15:00:00,83.2,60.9,30.07,NW,318,0.0,4.0,47,0.00,CLR,,0.00,WeatherDisplay:10.37,2013-09-06 19:00:00,
2013-09-06 16:00:00,80.3,62.2,30.06,SE,124,0.0,5.0,54,0.00,CLR,,0.00,WeatherDisplay:10.37,2013-09-06 20:00:00,
2013-09-06 17:00:00,77.9,62.4,30.05,East,98,0.0,1.0,59,0.00,CLR,,0.00,WeatherDisplay:10.37,2013-09-06 21:00:00,
2013-09-06 18:00:00,76.5,60.1,30.04,East,90,0.0,2.0,57,0.00,CLR,,0.00,WeatherDisplay:10.37,2013-09-06 22:00:00,
2013-09-06 19:00:00,73.9,61.8,30.04,East,90,0.0,0.0,66,0.00,CLR,,0.00,WeatherDisplay:10.37,2013-09-06 23:00:00,
2013-09-06 20:00:00,69.9,62.0,30.05,East,90,0.0,0.0,76,0.00,CLR,,0.00,WeatherDisplay:10.37,2013-09-07 00:00:00,
2013-09-06 21:00:00,67.5,60.7,30.07,East,90,0.0,0.0,79,0.00,CLR,,0.00,WeatherDisplay:10.37,2013-09-07 01:00:00,
2013-09-06 22:00:00,65.7,60.4,30.08,East,90,0.0,0.0,83,0.00,CLR,,0.00,WeatherDisplay:10.37,2013-09-07 02:00:00,
2013-09-06 23:00:00,65.1,61.8,30.09,East,90,0.0,0.0,89,0.00,CLR,,0.00,WeatherDisplay:10.37,2013-09-07 03:00:00,